Location: Alpha Ridge Park
(39.3209°N, 76.9128°W)
Time: 17:07:11
(UTC-04:00)

Transit 2A - Pass Details

Date: 26 May 2019
Orbit: 593 x 966 km, 66.7° (Epoch: 18 June)

Event Time Altitude Azimuth Distance (km) Brightness Sun altitude
Rises 08:07:46 0° 220° (SW) 3,536 9.0 25.1°
Reaches altitude 10° 08:10:17 10° 224° (SW) 2,633 8.4 25.6°
Maximum altitude 08:16:24 57° 303° (WNW) 1,119 6.9 26.8°
Drops below altitude 10° 08:22:42 10° 22° (NNE) 2,707 9.3 28.0°
Sets 08:25:20 0° 26° (NNE) 3,642 9.9 28.5°
